| time (UTC) | temp F | wind direction | speed knots | gust knots | rain 1hr in | rain 24hr in | rain mn in | humidity % | barometer mb |
| 20260505125023 | 55 | 202 | 0.9 | 5.2 | 0.00 | 0.00 | 0.00 | 76 | 1012.6 |
| 20260505124523 | 55 | 208 | 0.9 | 5.2 | 0.00 | 0.00 | 0.00 | 75 | 1012.5 |
| 20260505124023 | 55 | 217 | 0.9 | 6.1 | 0.00 | 0.00 | 0.00 | 75 | 1012.6 |
| 20260505123521 | 55 | 186 | 1.7 | 6.1 | 0.00 | 0.00 | 0.00 | 75 | 1012.5 |
| 20260505123023 | 55 | 182 | 1.7 | 5.2 | 0.00 | 0.00 | 0.00 | 75 | 1012.5 |
| 20260505122521 | 55 | 204 | 0.9 | 5.2 | 0.00 | 0.00 | 0.00 | 75 | 1012.4 |
| 20260505122020 | 55 | 221 | 0.9 | 5.2 | 0.00 | 0.00 | 0.00 | 75 | 1012.4 |
| 20260505121521 | 55 | 224 | 0.9 | 5.2 | 0.00 | 0.00 | 0.00 | 75 | 1012.3 |
| 20260505121020 | 55 | 64 | 0.0 | 5.2 | 0.00 | 0.00 | 0.00 | 75 | 1012.3 |
| 20260505120523 | 55 | 172 | 1.7 | 5.2 | 0.00 | 0.00 | 0.00 | 75 | 1012.3 |
| 20260505120026 | 55 | 198 | 0.0 | 3.5 | 0.00 | 0.00 | 0.00 | 75 | 1012.3 |
| 20260505115519 | 55 | 192 | 0.0 | 3.5 | 0.00 | 0.00 | 0.00 | 75 | 1012.3 |
| 20260505115020 | 55 | 188 | 0.0 | 3.5 | 0.00 | 0.00 | 0.00 | 75 | 1012.3 |
| 20260505114520 | 55 | 287 | 1.7 | 7.0 | 0.00 | 0.00 | 0.00 | 75 | 1012.3 |
| 20260505114018 | 55 | 168 | 1.7 | 7.0 | 0.00 | 0.00 | 0.00 | 75 | 1012.3 |
| 20260505113517 | 55 | 231 | 0.0 | 5.2 | 0.00 | 0.00 | 0.00 | 74 | 1012.2 |
| 20260505113026 | 55 | 223 | 0.9 | 6.1 | 0.00 | 0.00 | 0.00 | 74 | 1012.2 |
| 20260505112516 | 55 | 244 | 1.7 | 6.1 | 0.00 | 0.00 | 0.00 | 74 | 1012.1 |
| 20260505112020 | 55 | 204 | 0.9 | 6.1 | 0.00 | 0.00 | 0.00 | 74 | 1012.1 |
| 20260505111520 | 55 | 200 | 1.7 | 6.1 | 0.00 | 0.00 | 0.00 | 74 | 1012.1 |
| 20260505111017 | 55 | 284 | 0.9 | 3.5 | 0.00 | 0.00 | 0.00 | 74 | 1012.1 |
| 20260505110514 | 55 | 227 | 0.0 | 6.1 | 0.00 | 0.00 | 0.00 | 74 | 1012.0 |
| 20260505102016 | 55 | 190 | 0.0 | 6.1 | 0.00 | 0.00 | 0.00 | 73 | 1011.7 |
| 20260505101510 | 55 | 227 | 0.9 | 6.1 | 0.00 | 0.00 | 0.00 | 73 | 1011.6 |
| 20260505101010 | 55 | 192 | 0.0 | 5.2 | 0.00 | 0.00 | 0.00 | 73 | 1011.6 |
| 20260505100510 | 55 | 199 | 0.9 | 3.5 | 0.00 | 0.00 | 0.00 | 73 | 1011.6 |
| 20260505100009 | 55 | 232 | 0.9 | 6.1 | 0.00 | 0.00 | 0.00 | 73 | 1011.5 |
| 20260505095508 | 55 | 222 | 0.9 | 6.1 | 0.00 | 0.00 | 0.00 | 73 | 1011.5 |
| 20260505095008 | 55 | 192 | 0.0 | 5.2 | 0.00 | 0.00 | 0.00 | 73 | 1011.5 |
| 20260505094508 | 55 | 177 | 0.0 | 3.5 | 0.00 | 0.00 | 0.00 | 73 | 1011.4 |
| 20260505094007 | 55 | 201 | 0.0 | 3.5 | 0.00 | 0.00 | 0.00 | 73 | 1011.4 |
| 20260505093507 | 55 | 204 | 0.0 | 3.5 | 0.00 | 0.00 | 0.00 | 73 | 1011.4 |
| 20260505093006 | 54 | 219 | 0.9 | 4.3 | 0.00 | 0.00 | 0.00 | 73 | 1011.4 |
| 20260505092505 | 55 | 219 | 0.9 | 4.3 | 0.00 | 0.00 | 0.00 | 73 | 1011.2 |
| 20260505092004 | 55 | 163 | 1.7 | 4.3 | 0.00 | 0.00 | 0.00 | 73 | 1011.2 |
| 20260505091504 | 55 | 175 | 0.9 | 4.3 | 0.00 | 0.00 | 0.00 | 74 | 1011.1 |
| 20260505091002 | 55 | 206 | 0.0 | 5.2 | 0.00 | 0.00 | 0.00 | 74 | 1011.1 |
| 20260505090502 | 55 | 170 | 0.9 | 5.2 | 0.00 | 0.00 | 0.00 | 74 | 1011.1 |
| 20260505090002 | 55 | 183 | 0.9 | 6.1 | 0.00 | 0.00 | 0.00 | 74 | 1011.1 |
| 20260505085503 | 55 | 213 | 0.0 | 3.5 | 0.00 | 0.00 | 0.00 | 74 | 1011.1 |
| 20260505085101 | 55 | 173 | 0.9 | 4.3 | 0.00 | 0.00 | 0.00 | 74 | 1011.1 |
| 20260505084600 | 55 | 178 | 0.9 | 4.3 | 0.00 | 0.00 | 0.00 | 74 | 1011.0 |
| 20260505084100 | 55 | 190 | 0.9 | 4.3 | 0.00 | 0.00 | 0.00 | 74 | 1011.0 |
| 20260505083558 | 55 | 188 | 0.9 | 5.2 | 0.00 | 0.00 | 0.00 | 75 | 1010.9 |
| 20260505083112 | 55 | 153 | 0.0 | 5.2 | 0.00 | 0.00 | 0.00 | 75 | 1010.9 |
| 20260505082557 | 55 | 236 | 0.9 | 4.3 | 0.00 | 0.00 | 0.00 | 75 | 1010.9 |
| 20260505082057 | 55 | 213 | 0.9 | 4.3 | 0.00 | 0.00 | 0.00 | 75 | 1010.8 |
| 20260505081558 | 55 | 169 | 0.9 | 5.2 | 0.00 | 0.00 | 0.00 | 75 | 1010.8 |
| 20260505081057 | 55 | 213 | 0.9 | 5.2 | 0.00 | 0.00 | 0.00 | 75 | 1010.8 |
| 20260505080556 | 55 | 180 | 0.9 | 4.3 | 0.00 | 0.00 | 0.00 | 75 | 1010.8 |
| 20260505080055 | 55 | 180 | 0.9 | 4.3 | 0.00 | 0.00 | 0.00 | 76 | 1010.8 |
| 20260505075554 | 56 | 205 | 0.0 | 3.5 | 0.00 | 0.00 | 0.00 | 76 | 1010.8 |
| 20260505075054 | 56 | 185 | 0.9 | 3.5 | 0.00 | 0.00 | 0.00 | 76 | 1010.8 |
| 20260505074554 | 56 | 166 | 0.9 | 3.5 | 0.00 | 0.00 | 0.00 | 76 | 1010.8 |
| 20260505074053 | 56 | 223 | 1.7 | 3.5 | 0.00 | 0.00 | 0.00 | 76 | 1010.7 |
| 20260505073554 | 56 | 173 | 0.9 | 3.5 | 0.00 | 0.00 | 0.00 | 76 | 1010.6 |
| 20260505073053 | 56 | 173 | 0.9 | 4.3 | 0.00 | 0.00 | 0.00 | 77 | 1010.5 |
| 20260505072550 | 56 | 218 | 1.7 | 4.3 | 0.00 | 0.00 | 0.00 | 77 | 1010.5 |
| 20260505072049 | 56 | 208 | 1.7 | 5.2 | 0.00 | 0.00 | 0.00 | 78 | 1010.4 |
| 20260505071549 | 56 | 213 | 0.9 | 5.2 | 0.00 | 0.00 | 0.00 | 78 | 1010.4 |
| 20260505071049 | 56 | 240 | 0.9 | 5.2 | 0.00 | 0.00 | 0.00 | 79 | 1010.4 |
| 20260505070550 | 57 | 223 | 0.9 | 8.7 | 0.00 | 0.00 | 0.00 | 80 | 1010.2 |
| 20260505070051 | 57 | 237 | 0.9 | 3.5 | 0.00 | 0.00 | 0.00 | 80 | 1010.2 |
| 20260505065546 | 57 | 228 | 0.9 | 5.2 | 0.00 | 0.00 | 0.00 | 81 | 1010.2 |
| 20260505065045 | 57 | 277 | 0.9 | 5.2 | 0.00 | 0.00 | 0.00 | 81 | 1010.2 |
| 20260505064556 | 57 | 171 | 0.9 | 5.2 | 0.00 | 0.00 | 0.00 | 82 | 1010.1 |
| 20260505064045 | 57 | 219 | 0.0 | 3.5 | 0.00 | 0.00 | 0.00 | 82 | 1010.0 |
| 20260505063544 | 58 | 216 | 0.9 | 5.2 | 0.00 | 0.00 | 0.00 | 82 | 1010.1 |
| 20260505063051 | 58 | 176 | 0.9 | 5.2 | 0.00 | 0.00 | 0.00 | 82 | 1010.0 |
| 20260505062543 | 58 | 204 | 0.9 | 3.5 | 0.00 | 0.00 | 0.00 | 82 | 1010.0 |
| 20260505062041 | 58 | 178 | 0.9 | 3.5 | 0.00 | 0.00 | 0.00 | 82 | 1009.9 |
| 20260505061544 | 59 | 188 | 0.0 | 4.3 | 0.00 | 0.00 | 0.00 | 82 | 1009.8 |
| 20260505061041 | 59 | 153 | 0.9 | 4.3 | 0.00 | 0.00 | 0.00 | 82 | 1009.8 |
| 20260505060542 | 59 | 195 | 0.0 | 3.5 | 0.00 | 0.00 | 0.00 | 82 | 1009.6 |
| 20260505060041 | 59 | 165 | 0.0 | 4.3 | 0.00 | 0.00 | 0.00 | 82 | 1009.5 |
| 20260505055543 | 59 | 172 | 0.9 | 4.3 | 0.00 | 0.00 | 0.00 | 81 | 1009.4 |
| 20260505055041 | 60 | 190 | 0.9 | 3.5 | 0.00 | 0.00 | 0.00 | 81 | 1009.3 |
| 20260505054543 | 60 | 210 | 0.9 | 6.1 | 0.00 | 0.00 | 0.00 | 81 | 1009.3 |
| 20260505054040 | 60 | 188 | 0.9 | 6.1 | 0.00 | 0.00 | 0.00 | 80 | 1009.3 |
| 20260505053542 | 60 | 136 | 2.6 | 5.2 | 0.00 | 0.00 | 0.00 | 80 | 1009.2 |
| 20260505053041 | 60 | 175 | 1.7 | 5.2 | 0.00 | 0.00 | 0.00 | 80 | 1009.1 |
| 20260505052540 | 61 | 183 | 0.9 | 5.2 | 0.00 | 0.00 | 0.00 | 79 | 1009.0 |
| 20260505052042 | 61 | 173 | 1.7 | 6.1 | 0.00 | 0.00 | 0.00 | 79 | 1009.0 |
| 20260505051540 | 61 | 82 | 0.9 | 7.0 | 0.00 | 0.00 | 0.00 | 78 | 1009.0 |
| 20260505051040 | 61 | 198 | 2.6 | 7.0 | 0.00 | 0.00 | 0.00 | 78 | 1009.0 |
| 20260505050539 | 62 | 186 | 2.6 | 6.1 | 0.00 | 0.00 | 0.00 | 77 | 1009.0 |
| 20260505041546 | 66 | 222 | 0.0 | 1.7 | 0.00 | 0.00 | 0.00 | 71 | 1008.5 |
| 20260505041038 | 66 | 215 | 0.0 | 1.7 | 0.00 | 0.00 | 0.00 | 70 | 1008.5 |
| 20260505040538 | 67 | 215 | 0.0 | 0.9 | 0.00 | 0.00 | 0.00 | 70 | 1008.4 |
| 20260505040038 | 67 | 215 | 0.0 | 2.6 | 0.00 | 0.00 | 0.00 | 69 | 1008.4 |
| 20260505035537 | 67 | 215 | 0.0 | 2.6 | 0.00 | 0.00 | 0.00 | 68 | 1008.2 |
| 20260505035041 | 68 | 242 | 0.0 | 2.6 | 0.00 | 0.00 | 0.00 | 67 | 1008.1 |
| 20260505034542 | 68 | 267 | 0.0 | 1.7 | 0.00 | 0.00 | 0.00 | 66 | 1008.1 |
| 20260505034043 | 69 | 278 | 0.0 | 1.7 | 0.00 | 0.00 | 0.00 | 64 | 1008.1 |
| 20260505033538 | 69 | 15 | 0.0 | 1.7 | 0.00 | 0.00 | 0.00 | 60 | 1008.0 |
| 20260505033037 | 70 | 15 | 0.0 | 0.9 | 0.00 | 0.00 | 0.00 | 58 | 1007.9 |
| 20260505032537 | 70 | 15 | 0.0 | 0.0 | 0.00 | 0.00 | 0.00 | 57 | 1007.9 |
| 20260505032036 | 70 | 15 | 0.0 | 0.0 | 0.00 | 0.00 | 0.00 | 56 | 1007.8 |
| 20260505031537 | 70 | 15 | 0.0 | 0.0 | 0.00 | 0.00 | 0.00 | 56 | 1007.8 |
| 20260505031037 | 70 | 15 | 0.0 | 0.0 | 0.00 | 0.00 | 0.00 | 56 | 1007.8 |
| 20260505030536 | 70 | 15 | 0.0 | 0.0 | 0.00 | 0.00 | 0.00 | 56 | 1007.8 |
| 20260505030036 | 70 | 15 | 0.0 | 0.0 | 0.00 | 0.00 | 0.00 | 55 | 1007.7 |
| 20260505025536 | 70 | 15 | 0.0 | 0.0 | 0.00 | 0.00 | 0.00 | 55 | 1007.7 |
| 20260505025036 | 70 | 15 | 0.0 | 0.0 | 0.00 | 0.00 | 0.00 | 55 | 1007.7 |
| 20260505024543 | 70 | 15 | 0.0 | 0.0 | 0.00 | 0.00 | 0.00 | 55 | 1007.6 |
| 20260505024035 | 70 | 16 | 0.0 | 0.0 | 0.00 | 0.00 | 0.00 | 56 | 1007.6 |
| 20260505023537 | 70 | 16 | 0.0 | 0.0 | 0.00 | 0.00 | 0.00 | 56 | 1007.6 |
| 20260505023043 | 70 | 51 | 0.0 | 0.0 | 0.00 | 0.00 | 0.00 | 56 | 1007.5 |
| 20260505022537 | 69 | 41 | 0.0 | 0.0 | 0.00 | 0.00 | 0.00 | 57 | 1007.5 |
| 20260505022035 | 69 | 42 | 0.0 | 2.6 | 0.00 | 0.00 | 0.00 | 58 | 1007.6 |
| 20260505021540 | 69 | 51 | 0.0 | 2.6 | 0.00 | 0.00 | 0.00 | 58 | 1007.6 |
| 20260505021034 | 69 | 129 | 0.0 | 0.9 | 0.00 | 0.00 | 0.00 | 58 | 1007.7 |
| 20260505020534 | 69 | 22 | 0.0 | 3.5 | 0.00 | 0.00 | 0.00 | 58 | 1007.7 |
| 20260505020034 | 69 | 53 | 0.0 | 6.1 | 0.00 | 0.00 | 0.00 | 58 | 1007.6 |
| 20260505015534 | 70 | 41 | 1.7 | 7.8 | 0.00 | 0.00 | 0.00 | 57 | 1007.7 |
| 20260505015034 | 71 | 17 | 1.7 | 7.8 | 0.00 | 0.00 | 0.00 | 56 | 1007.7 |
| 20260505014541 | 71 | 325 | 0.0 | 3.5 | 0.00 | 0.00 | 0.00 | 57 | 1007.7 |
| 20260505014033 | 71 | 148 | 0.0 | 1.7 | 0.00 | 0.00 | 0.00 | 59 | 1007.6 |
| 20260505013534 | 71 | 94 | 0.0 | 5.2 | 0.00 | 0.00 | 0.00 | 58 | 1007.5 |
| 20260505013033 | 72 | 97 | 0.9 | 7.8 | 0.00 | 0.00 | 0.00 | 55 | 1007.5 |
| 20260505012533 | 74 | 37 | 4.3 | 8.7 | 0.00 | 0.00 | 0.00 | 51 | 1007.5 |
| 20260505012034 | 80 | 33 | 4.3 | 8.7 | 0.00 | 0.00 | 0.00 | 44 | 1007.5 |
| 20260505011534 | 83 | 222 | 0.0 | 0.0 | 0.00 | 0.00 | 0.00 | 41 | 1007.4 |
| 20260505011032 | 84 | 176 | 0.0 | 0.0 | 0.00 | 0.00 | 0.00 | 40 | 1007.4 |
| 20260505010532 | 84 | 248 | 0.0 | 0.0 | 0.00 | 0.00 | 0.00 | 39 | 1007.4 |
| 20260505010038 | 84 | 244 | 0.0 | 0.0 | 0.00 | 0.00 | 0.00 | 40 | 1007.4 |
| 20260505005533 | 84 | 219 | 0.0 | 0.9 | 0.00 | 0.00 | 0.00 | 39 | 1007.4 |
| 20260505005032 | 85 | 192 | 0.0 | 0.0 | 0.00 | 0.00 | 0.00 | 39 | 1007.4 |
| 20260505004532 | 85 | 327 | 0.0 | 0.0 | 0.00 | 0.00 | 0.00 | 38 | 1007.4 |
| 20260505004032 | 85 | 197 | 0.0 | 0.0 | 0.00 | 0.00 | 0.00 | 37 | 1007.5 |
| 20260505003531 | 85 | 298 | 0.0 | 0.0 | 0.00 | 0.00 | 0.00 | 38 | 1007.5 |
| 20260505003030 | 85 | 257 | 0.0 | 0.0 | 0.00 | 0.00 | 0.00 | 38 | 1007.5 |
| 20260505002533 | 85 | 200 | 0.0 | 0.0 | 0.00 | 0.00 | 0.00 | 37 | 1007.5 |
| 20260505002030 | 85 | 187 | 0.0 | 0.0 | 0.00 | 0.00 | 0.00 | 37 | 1007.6 |
| 20260505001536 | 85 | 194 | 0.0 | 0.0 | 0.00 | 0.00 | 0.00 | 37 | 1007.6 |
| 20260505001029 | 85 | 221 | 0.0 | 0.0 | 0.00 | 0.00 | 0.00 | 37 | 1007.6 |
| 20260505000529 | 85 | 173 | 0.0 | 0.0 | 0.00 | 0.00 | 0.00 | 37 | 1007.5 |
| 20260505000039 | 85 | 192 | 0.0 | 0.0 | 0.00 | 0.00 | 0.00 | 36 | 1007.6 |
| 20260504235528 | 85 | 229 | 0.0 | 0.9 | 0.00 | 0.00 | 0.00 | 36 | 1007.6 |
| 20260504235029 | 86 | 230 | 0.0 | 0.9 | 0.00 | 0.00 | 0.00 | 35 | 1007.6 |
| 20260504234528 | 87 | 277 | 0.0 | 1.7 | 0.00 | 0.00 | 0.00 | 36 | 1007.7 |
| 20260504234028 | 87 | 288 | 0.0 | 0.9 | 0.00 | 0.00 | 0.00 | 36 | 1007.7 |
| 20260504233530 | 87 | 232 | 0.0 | 0.0 | 0.00 | 0.00 | 0.00 | 35 | 1007.7 |
| 20260504233029 | 87 | 230 | 0.0 | 0.0 | 0.00 | 0.00 | 0.00 | 34 | 1007.8 |
| 20260504232527 | 87 | 290 | 0.0 | 0.0 | 0.00 | 0.00 | 0.00 | 35 | 1007.7 |
| 20260504232026 | 87 | 254 | 0.0 | 0.0 | 0.00 | 0.00 | 0.00 | 34 | 1007.7 |
| 20260504231535 | 87 | 275 | 0.0 | 1.7 | 0.00 | 0.00 | 0.00 | 35 | 1007.7 |
| 20260504231029 | 87 | 260 | 0.0 | 0.0 | 0.00 | 0.00 | 0.00 | 34 | 1007.8 |
| 20260504230525 | 87 | 196 | 0.0 | 0.0 | 0.00 | 0.00 | 0.00 | 35 | 1007.7 |
| 20260504230025 | 86 | 249 | 0.0 | 0.0 | 0.00 | 0.00 | 0.00 | 36 | 1007.8 |
| 20260504225525 | 86 | 184 | 0.0 | 1.7 | 0.00 | 0.00 | 0.00 | 36 | 1007.9 |
| 20260504225024 | 85 | 220 | 0.0 | 1.7 | 0.00 | 0.00 | 0.00 | 36 | 1007.9 |
| 20260504224528 | 85 | 257 | 0.0 | 0.0 | 0.00 | 0.00 | 0.00 | 37 | 1008.0 |
| 20260504224027 | 85 | 200 | 0.0 | 5.2 | 0.00 | 0.00 | 0.00 | 37 | 1008.0 |
| 20260504223527 | 86 | 195 | 0.0 | 5.2 | 0.00 | 0.00 | 0.00 | 36 | 1008.1 |
| 20260504223023 | 87 | 223 | 0.0 | 0.0 | 0.00 | 0.00 | 0.00 | 35 | 1008.1 |
| 20260504222523 | 87 | 232 | 0.0 | 0.0 | 0.00 | 0.00 | 0.00 | 35 | 1008.2 |
| 20260504222023 | 87 | 180 | 0.0 | 0.0 | 0.00 | 0.00 | 0.00 | 35 | 1008.4 |
| 20260504221522 | 86 | 249 | 0.0 | 0.0 | 0.00 | 0.00 | 0.00 | 37 | 1008.4 |
| 20260504221020 | 86 | 310 | 0.0 | 0.0 | 0.00 | 0.00 | 0.00 | 37 | 1008.5 |
| 20260504220521 | 86 | 204 | 0.0 | 0.0 | 0.00 | 0.00 | 0.00 | 37 | 1008.5 |
| 20260504220021 | 86 | 265 | 0.0 | 0.0 | 0.00 | 0.00 | 0.00 | 37 | 1008.6 |
| 20260504215520 | 86 | 240 | 0.0 | 0.0 | 0.00 | 0.00 | 0.00 | 38 | 1008.6 |
| 20260504215023 | 86 | 300 | 0.0 | 0.0 | 0.00 | 0.00 | 0.00 | 40 | 1008.6 |
| 20260504214519 | 86 | 317 | 0.0 | 0.0 | 0.00 | 0.00 | 0.00 | 41 | 1008.6 |
| 20260504214020 | 85 | 326 | 0.0 | 0.0 | 0.00 | 0.00 | 0.00 | 42 | 1008.7 |
| 20260504213522 | 86 | 286 | 0.0 | 0.0 | 0.00 | 0.00 | 0.00 | 42 | 1008.7 |
| 20260504213019 | 86 | 282 | 0.0 | 0.0 | 0.00 | 0.00 | 0.00 | 42 | 1008.7 |
| 20260504212518 | 86 | 281 | 0.0 | 0.0 | 0.00 | 0.00 | 0.00 | 42 | 1008.7 |
| 20260504212017 | 86 | 239 | 0.0 | 0.0 | 0.00 | 0.00 | 0.00 | 42 | 1008.8 |
| 20260504211518 | 86 | 175 | 0.0 | 0.0 | 0.00 | 0.00 | 0.00 | 42 | 1008.8 |
| 20260504211016 | 86 | 250 | 0.0 | 0.0 | 0.00 | 0.00 | 0.00 | 43 | 1008.8 |
| 20260504210515 | 85 | 163 | 0.0 | 0.0 | 0.00 | 0.00 | 0.00 | 44 | 1008.9 |
| 20260504210015 | 85 | 267 | 0.0 | 0.0 | 0.00 | 0.00 | 0.00 | 42 | 1008.9 |
| 20260504205515 | 85 | 272 | 0.0 | 0.0 | 0.00 | 0.00 | 0.00 | 43 | 1008.9 |
| 20260504205013 | 84 | 5 | 0.0 | 0.0 | 0.00 | 0.00 | 0.00 | 43 | 1008.9 |
| 20260504204511 | 83 | 331 | 0.0 | 0.0 | 0.00 | 0.00 | 0.00 | 45 | 1008.9 |
| 20260504204011 | 82 | 281 | 0.0 | 0.0 | 0.00 | 0.00 | 0.00 | 46 | 1008.9 |
| 20260504203511 | 82 | 302 | 0.0 | 0.0 | 0.00 | 0.00 | 0.00 | 47 | 1009.0 |
| 20260504203019 | 82 | 346 | 0.0 | 0.0 | 0.00 | 0.00 | 0.00 | 47 | 1009.0 |
| 20260504202513 | 81 | 355 | 0.0 | 0.0 | 0.00 | 0.00 | 0.00 | 46 | 1009.0 |
| 20260504202008 | 81 | 300 | 0.0 | 0.0 | 0.00 | 0.00 | 0.00 | 47 | 1009.0 |
| 20260504201507 | 81 | 300 | 0.0 | 0.0 | 0.00 | 0.00 | 0.00 | 45 | 1009.0 |
| 20260504201006 | 80 | 306 | 0.0 | 0.9 | 0.00 | 0.00 | 0.00 | 46 | 1009.1 |
| 20260504200509 | 79 | 163 | 0.0 | 0.9 | 0.00 | 0.00 | 0.00 | 42 | 1009.1 |
| 20260504200004 | 78 | 241 | 0.0 | 0.0 | 0.00 | 0.00 | 0.00 | 49 | 1009.0 |
| 20260504195502 | 78 | 327 | 0.0 | 0.0 | 0.00 | 0.00 | 0.00 | 50 | 1009.0 |
| 20260504195001 | 78 | 327 | 0.0 | 0.0 | 0.00 | 0.00 | 0.00 | 49 | 1009.0 |
| 20260504194611 | 77 | 339 | 0.0 | 0.0 | 0.00 | 0.00 | 0.00 | 50 | 1009.0 |
| 20260504194059 | 77 | 342 | 0.0 | 2.6 | 0.00 | 0.00 | 0.00 | 51 | 1009.0 |
| 20260504193558 | 76 | 342 | 0.0 | 3.5 | 0.00 | 0.00 | 0.00 | 52 | 1009.1 |
| 20260504193058 | 76 | 324 | 0.0 | 0.9 | 0.00 | 0.00 | 0.00 | 52 | 1009.1 |
| 20260504192555 | 75 | 355 | 0.0 | 0.9 | 0.00 | 0.00 | 0.00 | 54 | 1009.2 |
| 20260504192056 | 74 | 360 | 0.0 | 0.0 | 0.00 | 0.00 | 0.00 | 54 | 1009.2 |
| 20260504191558 | 73 | 74 | 0.0 | 0.0 | 0.00 | 0.00 | 0.00 | 53 | 1009.2 |
| 20260504191056 | 73 | 74 | 0.0 | 2.6 | 0.00 | 0.00 | 0.00 | 53 | 1009.3 |
| 20260504190556 | 73 | 78 | 1.7 | 2.6 | 0.00 | 0.00 | 0.00 | 51 | 1009.3 |
| 20260504190125 | 73 | 78 | 0.9 | 2.6 | 0.00 | 0.00 | 0.00 | 55 | 1009.4 |
| 20260504185556 | 72 | 84 | 0.0 | 2.6 | 0.00 | 0.00 | 0.00 | 54 | 1009.4 |
| 20260504185055 | 72 | 95 | 0.0 | 1.7 | 0.00 | 0.00 | 0.00 | 53 | 1009.5 |
| 20260504184558 | 73 | 95 | 0.0 | 0.0 | 0.00 | 0.00 | 0.00 | 53 | 1009.5 |
| 20260504184058 | 74 | 95 | 0.0 | 0.0 | 0.00 | 0.00 | 0.00 | 51 | 1009.5 |
| 20260504183555 | 75 | 103 | 0.0 | 0.0 | 0.00 | 0.00 | 0.00 | 52 | 1009.5 |
| 20260504183054 | 75 | 126 | 0.0 | 0.0 | 0.00 | 0.00 | 0.00 | 52 | 1009.4 |
| 20260504182552 | 74 | 136 | 0.0 | 0.0 | 0.00 | 0.00 | 0.00 | 52 | 1009.4 |
| 20260504182051 | 73 | 136 | 0.0 | 0.0 | 0.00 | 0.00 | 0.00 | 55 | 1009.4 |
| 20260504181557 | 72 | 138 | 0.0 | 0.0 | 0.00 | 0.00 | 0.00 | 56 | 1009.5 |
| 20260504181051 | 72 | 138 | 0.0 | 0.0 | 0.00 | 0.00 | 0.00 | 54 | 1009.4 |
| 20260504180551 | 73 | 138 | 0.0 | 0.0 | 0.00 | 0.00 | 0.00 | 53 | 1009.5 |
| 20260504180138 | 73 | 142 | 0.0 | 0.0 | 0.00 | 0.00 | 0.00 | 55 | 1009.4 |
| 20260504175549 | 72 | 143 | 0.0 | 0.0 | 0.00 | 0.00 | 0.00 | 56 | 1009.5 |
| 20260504175052 | 73 | 143 | 0.0 | 0.0 | 0.00 | 0.00 | 0.00 | 56 | 1009.5 |
| 20260504174550 | 72 | 143 | 0.0 | 0.0 | 0.00 | 0.00 | 0.00 | 59 | 1009.4 |
| 20260504174049 | 71 | 143 | 0.0 | 0.0 | 0.00 | 0.00 | 0.00 | 61 | 1009.5 |
| 20260504173545 | 70 | 143 | 0.0 | 0.0 | 0.00 | 0.00 | 0.00 | 62 | 1009.5 |
| 20260504173056 | 69 | 143 | 0.0 | 0.0 | 0.00 | 0.00 | 0.00 | 64 | 1009.6 |
| 20260504172541 | 68 | 143 | 0.0 | 0.0 | 0.00 | 0.00 | 0.00 | 64 | 1009.6 |
| 20260504172040 | 67 | 143 | 0.0 | 0.0 | 0.00 | 0.00 | 0.00 | 67 | 1009.6 |
| 20260504171539 | 66 | 143 | 0.0 | 0.0 | 0.00 | 0.00 | 0.00 | 66 | 1009.6 |
| 20260504171039 | 66 | 143 | 0.0 | 0.0 | 0.00 | 0.00 | 0.00 | 67 | 1009.6 |
| 20260504170539 | 66 | 145 | 0.0 | 0.0 | 0.00 | 0.00 | 0.00 | 66 | 1009.4 |
| 20260504151028 | 59 | 148 | 0.0 | 0.9 | 0.00 | 0.00 | 0.00 | 79 | 1008.9 |
| 20260504150527 | 59 | 148 | 0.0 | 1.7 | 0.00 | 0.00 | 0.00 | 80 | 1008.9 |
| 20260504141022 | 54 | 148 | 0.0 | 0.0 | 0.00 | 0.00 | 0.00 | 83 | 1008.5 |
| 20260504140520 | 54 | 148 | 0.0 | 0.0 | 0.00 | 0.00 | 0.00 | 83 | 1008.5 |
| 20260504130514 | 54 | 148 | 0.0 | 0.0 | 0.00 | 0.00 | 0.00 | 81 | 1008.1 |